Skip Page Navigation
NASA JPL Caltech
NASA Logo - Jet Propulsion Laboratory + View the NASA Portal
+ Near-Earth Object (NEO) Program
Search JPL
JPL Home Earth Solar System Stars & Galaxies Technology
JPL Solar System Dynamics
BODIES ORBITS EPHEMERIDES TOOLS PHYSICAL DATA DISCOVERY FAQ SITE MAP
JPL Small-Body Database Browser
Search: [ help ]  
13822 Stevedodson (1999 VV17)
Classification: Main-belt Asteroid          SPK-ID: 2013822
Ephemeris | Orbit Diagram | Orbital Elements | Physical Parameters | Discovery Circumstances ]

[ hide orbit diagram ]
Orbit Diagram
Note: Make sure you have Java enabled on your browser to see the applet. This applet is provided as a 3D orbit visualization tool. The applet was implemented using 2-body methods, and hence should not be used for determining accurate long-term trajectories (over several years or decades) or planetary encounter circumstances. For accurate long-term ephemerides, please instead use our Horizons system.
Orbit Viewer

Additional Notes: the orbits shown in the applet are color coded. The planets are white lines, and the asteroid/comet is a blue line. The bright white line indicates the portion of the orbit that is above the ecliptic plane, and the darker portion is below the ecliptic plane. Likewise for the asteroid/comet orbit, the light blue indicates the portion above the ecliptic plane, and the dark blue the portion below the ecliptic plane.

Orbit Viewer applet originally written and kindly provided by Osamu Ajiki (AstroArts), and further modified by Ron Baalke (JPL).


Orbital Elements at Epoch 2456400.5 (2013-Apr-18.0) TDB
Reference: MPO234915 (heliocentric ecliptic J2000)
 Element Value Uncertainty (1-sigma)   Units 
e 0.1658209 n/a  
a 2.3154569 n/a AU
q 1.9315058 n/a AU
i 2.91788 n/a deg
node 262.54513 n/a deg
peri 104.75338 n/a deg
M 313.22238 n/a deg
tp 2456567.7203426
(2013-Oct-02.22034260)
n/a JED
period 1286.9257425
3.52
n/a
n/a
d
yr
n 0.27973642 n/a deg/d
Q 2.6994080 n/a AU
  Orbit Determination Parameters
   # obs. used (total)      548  
   first obs. used      1978-??-??  
   last obs. used      2012-07-16  
   # oppositions      14  
   planetary ephem.      DE403  
   condition code      0  
   fit RMS      0.54  
   data source      MPC:mpn  
   producer      MPCLINUX  

Additional Information
 T_jup = 3.561 

Ephemeris | Orbit Diagram | Orbital Elements | Physical Parameters | Discovery Circumstances ]

Physical Parameter Table
Parameter Symbol Value Units Sigma Reference Notes
absolute magnitude H 15.0 mag n/a PDS3 (MPC 38406)  
rotation period rot_per 5.590 h n/a Asteroid Lightcurve DataBase (Rev. 2013-May-01) Result based on less than full coverage, so that the period may be wrong by 30 percent or so.
Published Reference List:
[Warner, B.D. (2011) Minor Planet Bul. 38, 142-149.]

13822 Stevedodson           Discovered 1999 Nov. 2 by Spacewatch at Kitt Peak.
Steve Dodson (b. 1943) taught high school in northern Ontario. From 1982 to 1992 he was on the staff at Science North in Sudbury. Beginning in 1994, he made thousands of small "Stargazer Steve" telescopes.
NOTE: some special characters may not display properly (any characters within {} are an attempt to place the proper accent above a character)
Reference: 20030614/MPCPages.arcLast Updated: 2005-04-26

Alternate Designations
 1999 VV17 = 1978 WN18 = 1989 YN4 
Ephemeris | Orbit Diagram | Orbital Elements | Physical Parameters | Discovery Circumstances ]
ABOUT SSD CREDITS/AWARDS PRIVACY/COPYRIGHT GLOSSARY LINKS
FirstGov 2013-May-19 08:28 UT
(server date/time)  
NASA Home Page
Site Manager:   Donald K. Yeomans
Webmaster  Alan B. Chamberlin